Regional Weather Roundup
Issued by NWS

Home | Current Version | Previous Version | Graphics & Text | Print | Product List | Glossary On
Versions: 1 2 3 4 5 6 7 8 9 10 11 12 13 14 15 16 17 18 19 20 21 22 23 24 25 26 27 28 29 30 31 32 33 34 35 36 37 38 39 40 41 42 43 44 45 46 47 48 49 50
000
ASUS43 KMPX 151901
RWRMN
WEATHER ROUNDUP FOR MINNESOTA
NATIONAL WEATHER SERVICE TWIN CITIES/CHANHASSEN MN
100 PM CST MON JAN 15 2018


NOTE: "FAIR" INDICATES FEW OR NO CLOUDS BELOW 12,000 FEET WITH NO
SIGNIFICANT WEATHER AND/OR OBSTRUCTIONS TO VISIBILITY. N/A MEANS
CURRENT SKY AND/OR WEATHER CONDITIONS ARE NOT AVAILABLE.

MNZ060>063-068>070-152000-
   Twin Cities Metro

CITY           SKY/WX    TMP DP  RH WIND       PRES   REMARKS
TWIN CITIES    PTSUNNY    5  -2  72 NW20G25   30.39S WCI -15
ST PAUL        MIX PCPN   6  -3  66 NW22G28   30.40S WCI -15
CRYSTAL        CLOUDY     6  -5  60 NW20      30.39S WCI -14
BLAINE         FLURRIES   7  -2  66 NW15      30.38S WCI -11
LAKEVILLE      FAIR       3  -4  72 NW18G25   30.37F WCI -17
EDEN PRAIRIE   PTSUNNY    4  -6  63 NW16      30.40R WCI -15
SOUTH ST PAUL  CLOUDY     7  -3  63 NW15G22   30.38R WCI -10
LAKE ELMO      FAIR       7   0  72 N14G22    30.37R WCI -10
$$
MNZ001>005-007-008-013>017-022>024-027-028-152000-
   Northwest Minnesota

CITY           SKY/WX    TMP DP  RH WIND       PRES   REMARKS
BEMIDJI        FAIR      -5 -13  68 N13G20    30.52S HAZE    WCI -24
HALLOCK        HAZE     -11 -18  70 N24G31    30.74F VSB 1   WCI -39
ROSEAU         FAIR      -6 -11  77 N10       30.67S WCI -23
WARROAD        FAIR      -2 -11  65 N10       30.65S WCI -19
CROOKSTON      SNOW     -13 -18  77 N26       30.71F VSB 1/4 WCI -42
FOSSTON        CLOUDY    -8 -17  65 NW15      30.61R HAZE    WCI -29
DETROIT LAKES  CLOUDY    -8 -15  71 N25G31    30.56F HAZE    WCI -34
MOORHEAD       HAZE     -11 -18  70 N23       30.69R VSB 1/2 WCI -38
PARK RAPIDS    FAIR      -3 -12  65 N17       30.47S WCI -24
$$
MNZ006-009>011-018-025>026-152000-
   North Central Minnesota

CITY           SKY/WX    TMP DP  RH WIND       PRES   REMARKS
BAUDETTE       FAIR      -6 -13  71 NW12G23   30.58S WCI -25
FLAG ISLAND    FLURRIES  -6 -13  71 N21       30.64F WCI -30
INTL FALLS     CLOUDY     1  -7  68 N10       30.52S WCI -15
WASKISH        PTSUNNY   -4 -11  71 N9G17     30.56R WCI -20
BIG FORK       PTSUNNY    3  -6  66 N6        30.47R WCI  -8
LONGVILLE      PTSUNNY    0  -9  65 NW10G17   30.46S WCI -17
GRAND RAPIDS   CLOUDY     1  -6  72 N21       30.44R WCI -21
CRANE LAKE     CLOUDY     3  -2  78 NW8       30.49S WCI -10
ORR            CLOUDY     1  -6  71 NW6       30.43R WCI -10
COOK           CLOUDY     3  -2  78 NW3       30.43R
WALKER         FAIR      -3 -12  65 NW12G17   30.49S WCI -21
$$
MNZ012-019>021-037-152000-
   Northeast Minnesota

CITY           SKY/WX    TMP DP  RH WIND       PRES   REMARKS
DULUTH         LGT SNOW   5  -1  76 N16       30.30S WCI -14
ELY            FAIR       7   0  72 MISG      30.38R
HIBBING        PTSUNNY    3  -4  72 N12G24    30.39S WCI -13
EVELETH        FAIR       5  -4  67 N9G16     30.38S WCI -10
DULUTH HARBOR  FLURRIES  10   3  72 NW8       30.38S WCI  -1
TWO HARBORS    PTSUNNY   19   9  63 N9        30.30S WCI   9
SILVER BAY     LGT SNOW  16   9  73 VRB8      30.30S WCI   5
GRAND MARAIS     N/A     23  15  71 N8G20     30.35R WCI  14
G MARAIS ARPRT LGT SNOW  14   7  73 N13       30.28R VSB 1   WCI   0
$$
MNZ029>031-032-039>041-046>048-054>057-064-152000-
   West Central Minnesota

CITY           SKY/WX    TMP DP  RH WIND       PRES   REMARKS
FERGUS FALLS   CLOUDY   -11 -17  77 N22G31    30.64F HAZE    WCI -38
WHEATON        MOSUNNY   -9 -18  64 NW24G30   30.66S WCI -36
MORRIS         PTSUNNY   -8 -15  71 NW26G37   30.56S HAZE    WCI -35
ALEXANDRIA     FAIR      -4 -14  62 NW16G25   30.48S WCI -25
ELBOW LAKE     CLOUDY   -10 -16  75 NW21G29   30.57S HAZE    WCI -36
WADENA         FAIR      -4 -11  71 NW15      30.48R WCI -25
GLENWOOD       FAIR      -4 -11  71 NW18G25   30.48S WCI -26
APPLETON       CLOUDY    -6 -15  65 N20G29    30.60R HAZE    WCI -29
BENSON           N/A     -8 -15  71 N28G33    30.54F HAZE    WCI -35
ORTONVILLE     PTSUNNY   -8 -15  71 N23G30    30.60S HAZE    WCI -33
MADISON        PTSUNNY   -4 -11  71 NW26G33   30.59F HAZE    WCI -30
WILLMAR        CLOUDY    -2  -9  71 NW24      30.50F WCI -27
$$
MNZ033>034-036-042>043-049>051-058-059-152000-
   Central Minnesota

CITY           SKY/WX    TMP DP  RH WIND       PRES   REMARKS
ST CLOUD       CLOUDY     1  -7  68 NW15G24   30.43R WCI -18
SAUK CENTRE      N/A     -3 -11  69 NW20      30.46S WCI -26
PAYNESVILLE    CLOUDY    -1  -8  73 NW18G24   30.45F HAZE    WCI -22
AITKIN         PTSUNNY    1  -6  71 NW10      30.40S WCI -14
PINE RIVER     FAIR      -2  -9  71 N10       30.48R HAZE    WCI -19
BRAINERD       PTSUNNY    1  -8  66 N23       30.44R BLWGSNOWWCI -22
STAPLES        FAIR      -2 -11  65 N20       30.46S WCI -25
LONG PRAIRIE   FAIR       0  -9  65 W20       30.45S WCI -22
LITTLE FALLS   PTSUNNY    1 -15  46 NW9G17    30.45S WCI -14
LITCHFIELD     PTSUNNY    1  -6  71 NW16G22   30.44F HAZE    WCI -18
BUFFALO        PTSUNNY    3  -6  66 NW12G21   30.44R WCI -14
MAPLE LAKE     PTSUNNY    4  -5  67 MISG      30.43F
HUTCHINSON     FAIR       2  -6  71 NW20G28   30.45S HAZE    WCI -20
$$
MNZ037-044-045-052-053-152000-
   East Central Minnesota

CITY           SKY/WX    TMP DP  RH WIND       PRES   REMARKS
PRINCETON      PTSUNNY    5  -4  66 NW10      30.40S WCI -10
MORA           SNOW       7  -4  61 N12G21    30.39S VSB 1/4 WCI  -9
CAMBRIDGE      PTSUNNY    7  -4  61 NW12G17   30.39S WCI  -9
RUSH CITY      CLOUDY     6  -2  67 NW8       30.38S WCI  -6
MOOSE LAKE     CLOUDY     5  -4  66 N10G17    30.36S HAZE    WCI -10
HINCKLEY       FAIR       9   0  66 N13       30.37R WCI  -7
CLOQUET        CLOUDY     5  -4  66 NW18G25   30.34R WCI -15
MCGREGOR       CLOUDY     5  -2  72 NW17      30.40R WCI -14
$$
MNZ071>073-080-081-089-090-097-098-152000-
   Southwest Minnesota

CITY           SKY/WX    TMP DP  RH WIND       PRES   REMARKS
MONTEVIDEO     PTSUNNY   -4 -11  71 N24G35    30.55S WCI -29
GRANITE FALLS  CLOUDY    -3 -10  69 NW24G32   30.56F HAZE    WCI -27
CANBY          PTSUNNY   -3 -11  67 NW21G28   30.58S HAZE    WCI -26
MARSHALL       CLOUDY    -6 -12  75 NW22G35   30.54R HAZE    WCI -31
REDWOOD FALLS  CLOUDY    -4 -12  68 NW17G32   30.51S HAZE    WCI -26
OLIVIA         CLOUDY     0  -8  71 NW20G30   30.49F WCI -22
PIPESTONE      PTSUNNY   -6 -13  71 N21G35    30.48F HAZE    WCI -30
WINDOM         HAZE      -6 -18  54 NW25      30.45S VSB 3/4 WCI -32
WORTHINGTON    CLOUDY    -4 -11  72 NW25      30.47S HAZE    WCI -30
JACKSON        CLOUDY    -4 -11  71 NW31G40   30.44S HAZE    WCI -32
SLAYTON        CLOUDY    -6 -12  74 NW23G29   30.48R HAZE    WCI -31
$$
MNZ065>067-074>077-082>085-091>093-152000-
   South Central Minnesota

CITY           SKY/WX    TMP DP  RH WIND       PRES   REMARKS
MANKATO        LGT SNOW   0  -6  76 NW24      30.43S WCI -24
NEW ULM        CLOUDY    -2  -9  71 NW24G32   30.46S HAZE    WCI -27
ST JAMES       CLOUDY     0  -8  71 NW26G37   30.45F HAZE    WCI -25
FAIRMONT       MOSUNNY   -2  -9  72 NW25G32   30.44S HAZE    WCI -27
FARIBAULT      FAIR       3  -6  66 W15G23    30.38S HAZE    WCI -15
OWATONNA         N/A      1  -4  78 NW22      30.36S HAZE    WCI -21
WASECA         CLOUDY     3  -4  72 NW21G26   30.40S HAZE    WCI -18
ALBERT LEA     CLOUDY     0  -8  71 NW16G26   30.34F HAZE    WCI -21
$$
MNZ078>079-086>088-094>096-152000-
   Southeast Minnesota

CITY           SKY/WX    TMP DP  RH WIND       PRES   REMARKS
ROCHESTER      MIX PCPN   3  -2  79 NW26      30.27S WCI -21
RED WING       LGT SNOW   9  -4  56 NW13G22   30.34S WCI  -7
STANTON        FAIR       6  -2  67 NW13      30.36S WCI -10
DODGE CENTER   CLOUDY     1  -4  78 NW23      30.29F HAZE    WCI -21
WINONA         CLOUDY    12   3  67 NW15G23     N/A  WCI  -4
PRESTON        CLOUDY     5  -3  72 NW18G26   30.26S HAZE    WCI -15
$$
ABBREVIATIONS USED IN REMARKS
   TC - TEMPERATURES IN CELSIUS
  WCI - WIND CHILL INDEX
   HX - HEAT INDEX
  VSB - VISIBILITY
$$




USA.gov is the U.S. government's official web portal to all federal, state and local government web resources and services.